Showing default

EAGLET 1, 43790

Orbit data source: Space-Track

EAGLET 1, 43790 is a payload satellite owned by OHB-I (IT) in SSO that was launched on Mon, 03 Dec 2018 UTC via an FALCON 9 launch vehicle from the Air Force Western Test Range (AFWTR). Payload-class satellites include a variety of spacecraft equipped with specific instruments for various scientific and technological missions. These include communications satellites like Starlink; space stations such as the ISS; scientific satellites like the Hubble; Earth observation satellites from companies like Planet Labs, Umbra, and HawkEye 360; GPS; miniature CubeSats for education and research; and military/defense satellites.

Loading next visibility...
Identifier
43790, 2018-099AJ
Orbit
SSO
Last TLE update
2 days ago
Origin
Manufacturer
OHB-I
Mission
Operational Commercial Technology
Bus & Motor
CUBESAT 3U, Unknown motor
Mass
5 kg wet, 5 kg dry
Launch date (UTC)
2018-12-03 (6 years ago)
Launch vehicle
FALCON 9
Launch site
Air Force Western Test Range (AFWTR)
Object type
Payload
Rocket body
Debris
Shape & HBR
Box + 2 Pan, 0.3 m
Radar Cross Section
0.035 m², Small (<0.1 m²)

Expand to show TLE details & history

TLE from 2 days ago
0 EAGLET 1
1 43790U 18099AJ  25118.10771974  .00008924  00000-0  57277-3 0  9997
2 43790  97.4794 173.4937 0011362 341.8675  18.2147 15.08648231349665
Epoch: 2025-04-28T02:35Z
Definitive object data (Epoch: 2025-04-28T02:35:06.985Z)
Latitude
-0.00003°
Longitude
-81.61188°
Altitude
535.935 km
Speed
7.599 km/s
True Right ascension
11h 33m 58s
True Declination
0° 00' 00"
Sunlit
Object was in full shadow at TLE epoch
Visualization TLE readout
Latitude
-53.17036°
Longitude
-69.31954°
Altitude
553.911 km
Speed
7.587 km/s
Apparent Right ascension
08h 37m 45s
Apparent Declination
-58° 59' 03"
Sunlit
Object is in full shadow
Visualization observer readout
Local Sidereal Time
17:37:38
Azimuth
220.711° SW
Elevation
-56.02°
Doppler factor
1
Orbital elements
Apogee altitude
545.171 km
Perigee altitude
529.456 km
Semi-major axis
6,915.451 km
Eccentricity
0.0011362
Inclination
97.4794°
RAAN
173.4937°
Arg. of periapsis
341.8675°
True anomaly
18.25545°
Mean anomaly
18.2147°
Eccentric anomaly
18.23507°
Mean motion
3.77409 °/min
BSTAR
0.00057277
Orbital period
95.39 mins
Loading maneuver chart data...
Loading SW <> Apogee altitude chart data...
Loading historical data...
Loading historical data...
Loading historical data...
Loading historical data...
Loading historical data...
Loading historical data...
Loading historical data...

EAGLET 1 Visibility forecast

Observer location: undefined°, undefined°

Span
Click to sort rows by Start time (UTC) header in descending order
Start Az.
Max El. time (UTC)
Max El. Az.
Max El.
End time (UTC)
End Az.
5 mins2025-04-30 15:39:41.973Z54.464° ENE2025-04-30 15:41:41.973Z90.806° ESE19.067°2025-04-30 15:44:41.973Z142.266° SSE
4 mins2025-04-30 17:14:41.973Z328.543° NNW2025-04-30 17:16:41.973Z280.671° WNW24.141°2025-04-30 17:18:41.973Z241.152° WSW
7 mins2025-05-01 03:55:41.973Z182.047° SSW2025-05-01 03:58:41.973Z238.823° WSW39.281°2025-05-01 04:02:41.973Z339.133° N
|